Theta_e
309 309 310 310 308 306 304 303 303 302 302 303 303 303 303 303 304 303 299 303 299 294 295 296 297 294 293 292 288 294 292 292 289 285 285 285 286 288 288 290 287 286 285 286 289 286 286 305 305 298 298 302 298 298
309 309 309 309 307 305 304 303 302 302 302 303 303 303 303 303 304 304 298 303 304 296 294 300 300 301 300 299 295 296 294 293 291 287 288 287 286 288 287 284 292 287 289 287 290 290 302 303 300 303 300 297 296 296
308 309 309 308 306 304 303 302 302 302 302 303 303 303 303 303 303 303 300 301 300 296 295 296 297 304 306 305 304 294 297 295 292 295 289 288 285 289 284 287 287 290 292 290 291 296 300 298 299 298 298 295 295 296
307 307 308 307 305 303 302 302 301 302 302 302 302 302 303 303 303 304 300 301 299 296 289 293 304 300 305 308 307 306 301 298 298 294 290 288 285 293 288 287 287 288 288 288 293 296 298 297 296 296 295 295 294 294
307 307 308 306 304 303 302 301 301 301 302 302 302 303 303 303 303 302 301 302 302 296 291 292 298 303 305 308 307 304 301 298 295 291 289 288 291 291 291 290 287 289 288 287 288 295 295 294 296 296 294 294 294 293
306 307 307 305 303 302 301 300 301 301 302 302 302 303 302 302 302 299 297 307 306 304 294 288 298 299 303 307 305 303 302 299 296 293 292 294 297 293 288 285 289 291 293 298 293 294 294 294 294 295 293 294 295 295
306 307 306 304 302 301 300 300 301 301 302 302 302 302 302 302 300 296 298 303 308 306 295 290 291 300 304 307 305 304 302 298 296 294 292 293 294 295 289 284 289 291 292 295 298 296 292 293 291 295 295 296 298 297
306 306 304 302 301 300 300 300 301 301 301 301 302 302 302 303 302 298 303 304 306 302 298 289 290 295 304 298 298 303 299 298 296 294 295 292 293 292 284 286 290 292 292 294 296 296 294 295 295 295 297 297 296 295
305 304 302 301 299 299 300 300 300 301 302 302 302 303 302 302 300 306 309 309 306 302 293 293 289 288 302 300 300 299 299 292 298 292 292 293 287 283 287 289 290 291 291 292 295 295 295 294 294 296 296 296 295 295
304 303 301 299 299 299 300 300 300 301 302 303 301 302 299 304 308 309 302 298 298 298 297 291 297 293 299 297 296 294 296 292 287 292 296 288 284 289 290 291 292 293 294 295 291 291 293 293 293 294 295 296 295 294
303 301 299 299 299 299 299 300 300 301 303 303 298 297 301 309 304 301 296 295 296 292 295 296 299 295 301 294 293 296 292 293 287 290 290 286 284 288 293 293 294 295 295 294 296 296 296 295 295 295 295 295 295 295
301 300 300 299 299 299 299 300 300 300 298 295 295 300 302 301 298 294 293 296 295 293 299 296 296 299 299 302 295 296 292 293 286 295 289 285 289 293 296 296 295 295 294 294 295 294 295 294 294 294 294 294 294 295
300 300 299 299 299 299 299 299 300 301 300 302 297 295 295 296 286 288 286 291 292 297 297 297 294 298 300 301 296 293 290 287 296 288 285 288 295 296 295 298 297 297 297 296 294 295 295 294 295 294 294 295 295 295
300 299 299 299 299 298 299 300 301 299 298 294 292 285 289 290 292 294 294 294 298 298 298 297 295 296 298 296 296 289 293 293 287 284 284 291 295 295 296 296 295 294 295 294 294 294 293 293 294 295 295 295 295 295
299 298 298 298 298 299 299 299 299 299 296 292 292 285 291 297 298 299 300 298 300 301 299 297 297 297 295 294 295 293 289 286 286 285 289 294 297 296 295 296 295 296 295 295 295 294 293 293 293 293 294 294 296 296
298 297 296 300 300 299 298 299 300 299 296 293 293 291 295 296 297 298 299 297 302 301 301 300 295 292 292 293 291 290 287 285 285 292 296 299 298 299 298 298 298 299 297 296 295 295 295 294 293 293 295 295 295 295
296 296 301 300 299 299 299 297 299 294 292 293 292 297 295 296 297 299 301 300 305 300 295 295 290 290 295 291 290 292 289 290 293 295 299 300 300 301 302 302 300 299 298 297 297 296 294 295 294 293 291 293 294 294
296 299 299 298 300 300 300 297 296 295 291 294 293 295 299 300 298 300 303 306 303 300 298 295 297 291 290 288 289 293 295 295 297 298 300 301 302 303 302 300 300 299 298 298 297 296 296 295 293 293 293 293 293 294
297 299 299 300 299 297 295 296 297 291 293 297 298 300 300 301 303 304 306 305 306 304 300 297 293 292 292 296 295 295 296 296 296 298 300 302 303 303 303 301 300 300 299 298 297 297 297 296 295 293 292 292 291 291
298 298 299 300 299 295 293 294 301 295 292 297 299 298 299 300 302 305 305 304 303 300 296 295 295 297 297 300 301 300 299 299 299 297 298 300 303 304 303 300 300 300 299 299 299 297 300 298 297 295 294 293 292 291
299 301 300 299 296 296 295 294 295 296 296 294 298 298 298 301 300 301 301 305 300 297 296 299 299 300 302 303 303 302 300 301 299 299 299 298 301 303 303 303 302 300 298 298 297 298 298 298 298 297 295 294 294 293
300 301 300 299 295 296 294 297 295 298 296 296 296 298 296 296 298 299 302 298 296 297 301 301 301 302 302 302 303 303 302 303 303 302 299 299 301 302 302 301 300 299 299 299 298 298 298 300 299 298 297 295 295 293
299 299 298 297 292 291 289 299 293 295 291 294 297 294 295 297 299 302 294 297 298 302 304 303 304 305 303 304 304 303 304 302 301 303 301 302 303 304 303 303 303 302 299 299 300 298 299 296 297 298 297 296 294 291
298 295 292 291 292 287 296 293 296 294 296 293 292 291 295 297 300 296 292 297 300 301 301 303 304 302 303 303 301 301 302 303 302 304 305 303 301 302 303 303 304 304 303 301 299 299 298 298 296 297 297 295 293 292
288 287 289 283 292 291 290 291 292 292 290 292 291 292 294 299 293 290 291 295 297 298 301 303 303 303 301 302 303 303 304 303 302 301 304 305 305 303 303 304 303 303 304 302 300 299 298 298 297 298 297 296 294 293
283 289 286 289 289 289 291 290 291 291 292 291 293 296 297 291 287 289 293 297 298 301 303 303 303 301 302 303 301 300 302 305 305 303 304 305 304 303 301 300 299 300 304 303 301 300 299 298 297 298 297 296 291 295
282 286 291 295 294 294 293 295 296 294 291 291 293 293 292 287 288 294 300 301 300 304 306 306 305 304 302 304 303 304 305 306 306 305 306 306 306 306 304 302 300 302 304 304 303 302 301 299 298 298 299 298 299 299
289 291 288 292 292 294 291 293 292 291 294 299 296 290 290 290 291 300 301 304 303 305 305 305 305 306 306 306 306 305 305 306 307 307 307 306 307 307 307 306 307 297 305 303 303 303 302 302 300 300 300 299 299 300
289 293 293 290 292 293 294 293 294 298 301 300 295 293 295 300 303 300 303 304 303 304 302 301 302 304 304 304 305 306 306 306 304 301 300 298 299 302 305 305 303 304 303 298 287 295 301 300 300 301 301 300 300 300
290 294 291 291 291 291 296 300 300 303 302 302 302 300 300 302 303 306 304 303 302 300 301 301 301 301 300 300 301 302 305 304 305 304 302 300 301 304 304 305 304 303 304 301 299 296 288 297 294 299 299 299 298 297
295 294 292 292 292 297 301 303 303 302 301 301 302 299 299 301 303 303 303 303 302 302 301 301 301 303 302 301 300 300 300 303 300 302 302 306 306 306 306 306 305 304 303 301 301 299 298 298 298 298 299 298 299 297
292 292 292 290 294 300 301 300 301 300 299 298 298 300 300 299 296 302 304 303 301 300 294 300 301 301 303 303 303 301 291 300 297 297 298 299 302 307 307 305 304 305 303 303 302 302 302 302 299 299 297 299 298 298
293 294 294 294 295 294 297 298 297 296 297 296 297 298 297 297 294 301 303 304 302 300 300 301 302 302 303 303 301 300 295 299 291 286 285 285 286 292 302 305 305 304 304 303 302 301 298 296 293 291 290 290 290 290
Wind_Speed
15 14 15 12 11 9 8 9 9 10 11 12 14 15 15 15 15 6 6 9 4 5 16 17 10 14 17 12 6 8 7 2 4 7 6 5 4 5 6 5 6 4 6 3 2 4 5 3 9 4 14 19 19 17
15 15 15 11 9 8 8 8 9 10 12 13 14 14 15 15 15 12 4 6 6 4 11 20 23 25 22 26 9 3 4 4 2 3 2 3 4 4 7 6 7 4 7 4 6 3 6 14 16 18 20 25 20 21
16 15 16 10 9 8 7 8 9 11 12 13 14 15 16 15 14 11 5 6 6 4 9 3 8 7 10 13 14 2 2 4 3 2 1 2 4 3 5 5 7 10 11 5 6 11 18 20 21 21 22 21 19 20
16 16 15 10 9 8 7 9 10 12 13 14 15 16 16 16 14 13 6 5 3 4 4 8 10 15 16 8 6 10 4 4 3 2 1 1 3 3 3 3 4 4 11 10 6 11 18 16 20 23 23 23 23 21
14 14 12 10 10 8 8 10 11 12 14 16 16 17 17 16 16 11 8 7 7 3 4 8 23 5 9 7 12 9 6 4 2 2 2 2 2 3 2 2 3 8 7 5 5 9 14 11 15 23 23 22 23 25
14 15 9 11 9 7 9 9 11 14 16 18 18 18 17 15 15 5 3 2 6 4 3 5 7 8 6 9 10 4 4 2 1 1 1 2 2 1 2 3 6 10 10 6 5 15 20 18 17 16 25 21 21 22
13 9 11 10 8 6 7 11 13 15 18 19 20 19 18 14 6 5 3 1 5 3 2 5 6 6 6 2 3 2 2 2 1 0 1 2 1 2 3 3 7 9 11 9 7 11 15 13 14 16 24 22 23 18
11 10 11 9 6 6 8 11 14 17 20 22 21 21 20 15 12 7 8 16 5 3 2 3 6 5 2 3 3 3 1 1 2 2 2 3 3 3 3 2 4 8 11 13 15 18 20 20 21 19 18 17 18 18
9 11 9 6 5 6 9 11 15 19 22 23 22 24 6 4 4 1 8 10 4 2 3 3 3 4 3 2 2 2 2 2 1 2 3 2 4 4 4 4 3 5 4 11 17 19 18 19 17 15 14 17 16 17
11 11 9 6 5 6 9 12 15 21 25 25 6 4 3 3 9 8 2 3 3 2 3 4 4 4 4 1 2 2 1 2 3 2 2 3 3 4 6 7 8 9 10 12 19 14 15 18 16 16 13 14 15 15
10 8 6 4 3 6 8 11 15 20 17 2 4 4 5 8 3 4 3 5 4 4 5 6 6 5 3 2 3 1 2 0 3 3 2 2 2 3 5 10 9 9 12 13 13 12 12 7 12 16 16 16 15 15
10 8 7 4 3 6 8 10 13 8 4 6 5 7 4 3 2 3 4 4 4 2 1 4 3 1 4 5 3 0 0 2 3 2 4 3 2 6 7 12 16 14 16 14 8 8 3 14 14 14 14 14 13 13
10 8 6 4 4 6 7 9 11 11 13 3 3 4 3 2 1 5 3 3 2 3 3 4 5 3 3 3 3 2 1 2 2 4 3 3 1 3 6 14 17 14 13 16 13 6 13 15 15 13 14 12 13 14
8 6 6 6 7 7 7 9 8 7 4 2 2 3 4 4 5 2 5 3 2 4 5 4 4 2 3 2 4 2 2 3 4 3 3 0 3 6 6 10 13 15 13 10 12 12 13 12 13 13 12 13 12 12
7 5 6 10 11 9 5 5 7 4 3 3 3 4 5 3 2 5 4 3 2 3 4 5 4 2 3 2 3 3 2 3 3 4 3 3 2 9 6 7 9 10 13 12 14 12 12 12 11 11 9 8 10 11
6 6 7 6 6 5 3 8 3 2 3 4 6 5 6 2 3 4 4 3 1 3 4 3 3 3 2 2 2 4 2 2 2 3 4 3 2 2 10 9 10 9 10 11 12 12 11 10 9 9 9 10 10 10
4 3 8 6 5 5 5 3 3 4 4 5 6 7 8 5 2 4 5 3 3 2 2 3 3 2 3 3 3 4 2 3 3 3 3 3 1 5 5 9 11 11 10 10 10 10 10 8 8 8 8 6 7 8
4 6 6 1 4 3 3 4 4 4 7 7 6 6 5 3 3 3 1 2 2 1 2 2 2 3 3 3 2 3 3 4 2 2 2 2 3 6 6 8 9 10 9 10 11 9 8 7 8 6 7 7 7 7
5 2 2 3 3 2 2 4 4 4 6 6 7 6 3 3 2 2 3 2 1 3 3 2 3 2 2 2 3 5 5 4 7 4 0 3 0 7 7 9 8 7 9 9 8 5 7 8 8 6 5 5 5 5
7 8 6 4 4 2 4 4 4 4 5 3 7 6 4 2 3 4 2 2 1 0 1 2 3 2 2 2 3 4 6 5 6 5 2 1 3 1 5 8 7 8 7 7 5 6 5 7 7 8 7 7 6 5
2 3 7 5 5 5 4 4 3 4 5 5 7 6 3 2 5 3 2 1 1 2 1 1 2 3 1 3 5 6 6 7 7 7 7 4 2 2 2 5 11 7 6 4 5 5 8 6 7 5 7 6 6 6
1 7 2 6 4 5 5 5 4 3 3 5 7 5 5 2 4 2 1 1 1 0 0 2 2 2 2 4 6 5 8 6 4 4 7 6 4 1 3 5 4 6 6 5 5 5 4 5 6 5 5 6 8 7
4 3 3 4 3 2 7 5 4 4 4 3 4 4 3 3 3 2 2 1 1 2 3 2 1 3 3 9 8 7 7 6 3 6 7 8 6 5 3 0 2 3 4 4 5 4 4 9 7 6 6 6 7 5
2 3 4 4 6 5 4 5 4 3 4 6 3 6 2 3 3 2 1 1 1 1 2 3 3 1 3 9 6 6 3 4 3 1 5 6 7 7 6 6 4 5 4 5 5 5 6 5 7 6 5 10 7 6
2 5 3 4 4 5 5 5 9 5 4 8 9 2 3 1 3 3 3 1 2 1 3 4 2 2 2 4 4 6 5 6 4 4 1 2 4 6 6 7 5 4 4 5 5 8 5 6 5 7 6 8 9 9
4 5 5 4 4 5 4 4 3 5 3 2 3 3 2 3 1 2 2 1 1 1 2 3 2 1 2 4 6 6 3 3 3 3 1 1 2 3 5 4 3 2 3 5 5 8 7 7 6 6 7 6 11 12
4 5 5 5 5 4 5 3 4 4 2 3 2 3 3 1 2 2 3 3 2 4 3 4 3 6 6 4 5 7 6 5 6 5 3 5 4 3 2 4 5 3 4 4 4 6 6 6 7 6 7 6 5 4
4 4 5 6 6 1 2 4 3 2 1 1 4 2 3 2 2 2 3 5 4 5 5 4 4 4 4 5 6 4 6 7 7 7 5 4 5 6 6 4 4 7 1 2 3 6 6 6 7 6 6 8 5 7
4 5 5 7 4 3 4 3 2 2 2 1 2 2 3 3 2 3 4 3 3 4 3 2 2 3 3 3 4 4 3 3 1 2 2 3 4 3 4 5 4 4 4 6 7 7 5 5 8 4 5 6 6 6
6 5 3 4 5 2 2 1 2 3 3 5 6 9 6 3 4 5 5 5 3 3 3 4 3 5 4 4 4 3 3 1 3 3 2 3 1 0 3 4 5 4 6 6 6 4 5 6 4 5 4 3 2 3
2 4 4 4 3 1 4 3 2 6 4 5 5 7 5 3 3 5 4 4 4 5 5 6 5 5 4 4 3 3 4 5 5 6 5 4 8 5 3 4 4 3 7 9 7 7 5 4 4 2 4 6 7 7
4 6 5 5 3 1 2 3 2 2 4 4 6 7 4 3 3 2 2 4 4 4 3 4 5 5 5 3 4 4 1 4 5 5 9 6 6 6 4 4 5 4 6 7 5 5 8 7 6 6 2 4 4 8
7 6 5 4 3 3 3 4 3 3 3 3 4 4 2 3 3 3 1 3 4 5 5 5 5 6 6 6 6 3 3 3 3 6 5 6 6 4 4 2 6 6 5 4 7 8 10 13 10 10 10 11 10 10
Wind_Direction
296 296 298 268 239 239 252 271 291 307 312 316 318 323 326 330 323 330 286 285 264 265 290 273 276 302 293 287 261 295 332 51 10 17 360 340 318 344 318 289 343 340 326 31 319 69 151 204 218 303 125 118 111 106
295 294 296 259 226 229 249 274 292 300 305 308 316 321 321 323 320 325 275 305 306 252 275 294 282 265 254 248 254 259 276 13 14 347 11 309 315 314 313 326 344 17 4 311 14 358 40 55 87 104 109 115 117 109
299 299 300 239 216 222 245 267 282 292 302 309 314 315 314 318 317 310 289 294 295 267 284 273 270 304 296 236 223 274 65 147 202 151 212 283 281 322 339 358 297 343 9 12 349 11 87 80 80 87 95 100 106 103
303 304 297 215 206 218 245 268 282 295 303 306 307 310 309 313 315 307 278 285 281 271 286 284 314 315 302 299 196 202 146 95 115 157 201 271 284 349 338 313 340 330 315 317 2 24 74 74 97 103 102 103 97 89
294 293 280 196 196 214 242 268 286 297 301 302 306 308 309 316 317 303 266 243 225 256 295 303 302 261 318 87 74 92 138 161 128 165 190 233 236 303 295 11 8 339 340 358 9 359 79 83 103 113 109 107 107 109
291 291 224 188 197 221 260 278 291 298 301 302 304 306 308 316 323 294 288 62 195 163 296 305 332 286 298 127 100 91 102 93 131 193 252 294 232 271 345 59 340 348 334 1 73 74 78 87 86 99 103 106 109 105
287 254 185 191 206 236 271 287 296 299 302 302 303 304 305 304 290 248 299 342 335 128 262 290 282 272 278 141 77 68 95 101 6 211 283 278 1 353 31 41 350 20 26 39 85 86 75 80 95 99 103 103 100 96
280 189 183 195 209 248 279 294 302 305 303 301 302 302 299 289 277 257 236 235 210 244 200 273 278 278 292 10 78 335 37 119 49 3 330 358 32 8 67 19 69 53 48 50 74 84 99 105 104 104 103 112 118 130
184 180 190 193 229 269 292 307 310 309 304 299 305 295 285 205 226 301 119 122 189 269 281 222 274 291 348 15 77 25 42 12 319 48 11 31 19 35 306 168 36 51 75 103 91 89 91 89 92 105 125 134 117 107
174 188 187 201 250 289 306 315 317 314 306 303 282 212 188 221 125 134 65 174 190 222 230 260 248 244 267 332 94 332 295 29 30 19 90 45 51 344 49 82 101 98 97 101 102 102 122 125 131 140 133 107 104 105
178 181 204 227 266 300 317 324 327 325 305 347 332 8 321 298 233 199 252 207 159 211 212 233 220 250 288 13 91 200 310 143 37 341 70 75 43 14 99 120 121 97 81 73 84 109 123 132 101 105 105 106 104 103
174 197 208 226 275 305 314 330 331 326 11 305 294 277 264 264 228 259 245 234 209 301 260 316 340 250 276 110 93 330 34 72 79 311 22 45 84 251 177 134 113 104 99 100 127 171 143 91 90 101 106 109 113 115
189 200 219 239 270 291 309 320 320 311 301 244 208 242 251 256 3 226 259 336 320 262 358 324 328 311 316 75 112 58 22 69 188 49 36 30 232 193 82 137 167 166 162 164 195 106 92 111 115 114 116 111 104 104
198 208 237 259 269 282 293 303 308 316 278 261 263 279 235 209 231 110 216 190 360 0 331 329 296 261 288 338 91 44 22 117 94 72 21 140 156 100 77 111 116 116 106 102 104 109 100 96 95 94 97 103 110 114
203 229 267 274 257 266 277 287 300 291 279 260 228 243 243 297 288 340 20 3 31 287 329 321 300 224 244 268 115 130 26 76 55 120 153 217 177 139 146 133 134 133 143 146 132 125 124 119 115 114 112 113 112 111
227 267 233 238 172 184 264 298 235 233 241 248 232 255 268 300 327 335 330 287 357 354 306 250 273 309 302 349 327 51 89 67 159 155 145 157 65 106 162 158 153 143 126 123 122 125 128 122 118 114 106 106 114 123
232 253 150 167 196 240 263 268 207 225 251 230 234 226 256 266 191 277 265 317 42 11 308 313 320 330 290 349 54 31 51 127 155 124 129 99 249 263 106 122 123 121 114 117 118 113 115 116 109 105 109 113 103 108
243 141 131 150 302 196 199 212 253 242 241 243 256 265 247 178 255 258 90 26 356 304 282 333 295 288 25 21 45 122 104 125 119 100 82 286 238 144 107 98 103 113 121 116 119 123 125 115 109 111 112 114 104 96
41 9 37 327 321 290 252 214 226 264 254 261 252 262 253 171 216 231 100 287 141 229 288 298 264 58 59 50 105 111 128 151 157 156 137 316 124 115 124 122 117 108 109 122 124 140 143 139 134 128 131 123 118 127
281 283 268 270 235 247 245 242 213 252 271 299 298 263 222 169 156 98 160 185 317 1 304 327 51 54 103 107 96 119 133 131 147 151 172 250 353 118 109 136 129 123 130 148 167 155 147 142 153 155 163 153 146 161
193 169 155 199 197 226 277 278 236 250 281 271 295 309 310 212 144 149 165 184 226 263 105 131 135 104 305 123 120 123 138 153 160 185 196 189 205 127 154 133 138 147 156 172 173 186 166 172 169 158 144 154 156 161
256 164 237 193 253 210 240 244 253 300 259 272 298 282 258 237 117 105 199 132 6 339 70 22 97 99 303 142 130 133 148 141 128 129 150 154 156 163 187 158 162 166 171 169 172 162 170 135 130 146 138 133 115 116
254 223 234 228 243 235 257 242 237 236 252 265 229 243 257 80 82 99 54 264 274 211 185 201 80 46 40 113 112 124 144 141 136 156 154 156 179 174 122 1 268 288 149 157 144 155 117 123 138 134 129 111 116 121
231 246 234 220 200 252 245 206 218 242 239 247 259 256 96 115 172 14 129 187 242 22 175 155 89 269 148 155 150 152 152 131 109 342 171 181 158 163 184 213 237 250 164 144 137 121 140 130 124 124 134 126 130 135
189 252 168 261 252 251 250 221 218 230 243 244 216 161 39 222 129 151 208 239 132 261 265 143 160 236 202 150 136 116 129 135 140 149 133 223 176 171 192 222 216 173 168 127 134 140 149 137 147 145 157 147 151 159
206 224 188 221 234 232 244 279 227 229 218 275 89 112 65 56 94 167 109 136 322 306 132 153 121 99 127 131 132 139 156 144 156 87 318 247 214 137 151 153 135 142 135 143 143 149 155 149 169 176 176 182 171 178
234 239 211 239 267 277 287 279 250 261 265 100 218 139 132 350 119 77 115 128 241 121 108 106 97 104 194 123 134 143 159 167 191 196 197 228 215 207 143 173 154 153 94 97 114 129 135 165 182 204 165 150 163 183
258 282 231 235 235 264 278 277 262 272 69 160 94 48 89 20 89 146 119 78 60 59 88 99 114 126 119 133 150 160 199 212 226 237 251 187 158 168 191 185 133 140 121 121 193 190 194 162 165 197 156 156 198 196
244 253 248 251 237 245 244 249 304 55 1 61 96 80 81 50 100 105 107 130 95 108 105 88 100 113 83 122 113 105 43 1 168 210 272 130 148 185 160 133 149 163 132 94 64 64 102 142 167 187 187 195 188 165
237 199 251 243 239 259 259 94 107 74 52 74 91 100 87 58 37 60 59 56 100 94 97 96 46 70 80 67 51 80 110 100 351 222 178 256 299 95 123 147 168 189 147 151 136 119 74 106 103 135 172 158 151 144
219 198 232 258 292 92 135 223 119 106 84 120 122 115 112 118 68 34 46 48 51 45 80 85 73 69 67 62 37 24 89 44 18 16 18 209 223 238 215 202 197 170 153 170 171 165 165 172 172 206 209 196 192 187
205 211 227 219 219 235 202 128 157 142 138 126 129 126 121 112 93 50 38 57 39 61 47 63 76 58 36 46 70 96 79 41 3 2 4 321 286 190 208 214 173 159 130 127 141 160 215 194 178 194 190 48 45 105
215 230 237 252 203 208 213 164 202 158 138 144 130 128 106 99 115 118 356 42 81 84 58 46 71 69 50 40 20 43 356 34 66 35 344 317 307 354 30 338 126 130 150 112 69 69 77 89 87 87 87 89 90 93